Wind_Speed
26 28 30 30 29 32 33 33 34 32 32 32 32 33 34 34 35 36 36 34 31 29 24 22 20 21 20 21 22 22 22 23 23 24 26 27 29 30 31 31 32 31 31 30
26 27 31 31 30 34 35 35 35 34 32 33 33 32 33 32 31 32 31 29 27 24 20 17 16 16 16 16 17 19 20 21 22 24 26 28 29 30 30 31 31 31 30 29
25 25 29 28 27 32 34 35 34 34 33 33 32 31 31 29 28 28 27 25 23 21 18 16 15 15 16 16 17 18 19 21 22 23 25 27 28 29 30 30 30 30 30 29
26 26 26 25 27 29 31 31 31 32 32 32 32 30 30 27 25 25 23 22 20 18 16 15 14 13 14 15 15 16 18 20 21 22 24 25 26 27 27 28 28 27 27 25
27 28 26 22 26 30 32 29 28 31 30 31 31 29 29 26 24 22 20 19 17 16 15 13 13 12 12 13 14 15 16 18 20 21 22 23 23 24 24 24 22 21 20 20
28 29 27 25 26 27 29 27 26 29 29 30 31 30 28 26 23 19 18 17 16 15 14 13 12 11 11 12 12 13 14 15 17 17 18 18 18 19 18 17 16 15 16 17
30 30 28 28 28 28 28 28 27 27 28 29 30 30 28 25 22 19 16 14 13 12 11 11 10 9 9 10 11 12 13 13 14 14 14 14 15 14 14 13 13 13 14 15
30 29 28 29 29 29 29 28 27 27 27 28 28 28 28 26 23 19 16 14 13 12 11 11 10 9 8 8 9 10 10 11 11 11 11 11 11 12 12 12 12 13 14 15
32 30 30 31 32 32 32 30 29 29 28 28 28 28 28 26 24 21 17 15 14 14 13 12 11 10 9 9 9 9 9 9 9 9 9 9 10 11 11 12 13 14 15 15
33 32 32 33 33 34 34 33 32 31 29 28 27 27 28 28 26 23 21 18 17 16 15 14 13 12 11 10 10 9 9 9 8 8 8 9 10 11 12 13 15 15 16 16
36 33 33 32 34 35 35 35 34 32 30 29 27 26 28 29 29 26 24 23 21 20 18 17 16 15 14 13 11 11 10 10 9 9 9 10 11 12 14 14 15 15 15 15
39 37 37 34 34 36 36 36 35 34 32 30 29 27 27 28 29 28 26 25 24 24 22 21 19 17 16 15 14 13 12 12 12 12 12 12 13 13 14 15 15 15 14 14
42 41 39 36 35 36 37 37 36 35 33 31 29 28 27 27 29 29 28 26 26 26 25 24 23 21 19 17 16 15 15 14 14 14 14 15 15 15 15 15 15 14 14 14
46 46 43 40 38 36 37 37 37 35 33 31 30 28 27 27 27 28 27 26 26 27 27 27 26 24 23 21 20 19 18 17 17 16 16 16 16 16 16 16 15 14 14 14
48 47 46 43 40 38 38 38 38 36 34 32 30 28 27 26 26 26 26 26 26 27 28 28 28 27 26 25 24 22 22 20 19 18 18 18 18 18 17 16 15 14 14 14
49 48 46 45 43 41 39 39 39 37 35 33 31 30 28 27 27 27 27 26 25 25 26 27 27 27 27 27 26 25 24 23 21 20 19 19 19 19 18 17 15 14 14 13
53 52 50 46 44 41 40 40 40 39 37 36 34 33 31 30 29 29 28 27 25 24 23 24 24 24 24 25 25 25 25 24 23 22 21 21 20 20 19 18 17 16 15 14
55 54 53 51 48 44 42 42 42 41 40 39 37 34 33 32 31 30 30 30 28 25 22 22 22 22 22 22 22 23 23 23 23 23 23 22 21 21 20 19 18 17 16 15
55 54 54 54 53 52 49 46 44 44 43 42 41 39 36 34 33 32 32 32 29 26 24 24 22 20 20 20 20 20 21 21 22 23 24 23 22 21 21 20 19 18 17 17
61 60 59 59 60 60 59 54 48 46 43 41 41 41 40 36 35 34 34 32 29 27 27 28 26 23 21 20 20 20 19 19 20 22 23 24 23 22 21 20 19 19 18 18
68 67 67 67 66 65 64 63 59 55 51 46 43 42 41 40 39 37 34 31 30 30 30 30 28 26 24 23 22 21 20 19 18 19 20 22 23 23 21 20 20 19 19 19
71 72 73 73 73 71 69 69 68 65 61 59 55 49 44 42 42 42 38 34 31 31 31 30 29 28 27 27 25 23 22 20 19 18 18 19 21 22 22 21 20 20 20 20
64 64 65 66 67 69 70 71 72 71 67 63 60 56 50 45 43 44 43 39 36 34 33 31 30 30 30 30 29 26 25 23 20 19 18 18 19 20 21 21 20 20 20 20
58 55 52 51 51 51 52 56 60 63 65 64 61 58 55 51 47 44 42 41 40 37 35 33 31 32 33 33 31 29 27 25 23 21 19 19 19 19 20 21 20 20 20 20
47 44 41 39 37 37 36 36 38 43 49 53 55 55 55 53 50 46 43 42 41 39 38 36 34 33 34 34 33 31 29 27 26 23 21 20 20 20 20 20 20 20 20 19
38 36 34 32 31 29 27 26 27 28 31 34 37 41 45 48 48 45 42 41 39 38 37 36 36 35 35 35 34 33 32 30 29 26 23 22 21 21 21 21 20 19 19 18
31 31 32 31 29 28 26 23 20 18 18 19 22 26 30 35 38 39 38 37 37 38 37 36 36 36 36 35 34 34 33 33 31 28 25 23 22 21 21 20 20 20 21 21
Wind_Direction
293 290 286 285 289 289 289 289 291 292 294 297 300 305 310 315 319 322 322 319 317 313 306 293 274 259 251 247 240 238 241 241 244 249 252 256 260 263 266 268 269 270 271 272
301 295 290 289 290 287 286 287 287 288 291 292 296 301 307 313 318 322 323 322 319 316 310 299 283 271 259 254 249 245 246 249 252 254 257 259 261 264 266 267 269 270 272 273
310 303 300 305 299 291 289 288 287 286 287 287 290 296 303 310 316 320 321 322 320 318 313 304 290 278 268 261 255 254 254 254 255 256 259 261 263 265 267 269 270 271 272 273
314 311 313 318 307 302 297 293 290 287 285 285 287 292 298 305 311 316 319 320 319 317 314 308 300 290 278 271 266 263 262 260 260 260 263 264 266 268 271 273 273 273 273 272
318 317 321 324 312 305 303 302 293 287 285 284 285 287 291 297 302 309 315 317 317 314 310 306 301 293 282 273 269 268 266 265 265 265 266 268 268 271 272 272 273 273 274 277
318 319 325 327 314 310 308 308 295 289 287 286 284 283 285 289 292 297 307 312 312 310 307 302 296 291 285 280 277 274 272 272 271 270 270 270 271 272 274 276 274 274 277 279
316 318 324 320 318 317 314 312 304 296 289 286 284 284 282 281 283 287 294 302 309 311 311 311 307 301 294 289 286 283 280 278 278 275 271 269 270 271 271 272 272 275 280 284
315 318 319 316 316 316 315 313 309 304 294 287 285 282 277 276 275 276 280 287 294 299 303 308 311 312 312 310 305 298 292 286 282 276 270 265 263 263 266 268 270 278 285 289
316 317 313 312 312 313 313 313 310 307 302 293 287 281 274 271 270 268 268 273 280 287 292 297 301 306 312 315 316 315 311 303 292 281 271 264 260 262 266 269 275 282 287 290
311 311 307 307 307 308 308 309 310 308 305 299 290 283 275 269 267 266 264 266 272 277 283 287 291 294 298 303 306 311 313 310 299 286 275 268 266 267 270 275 280 284 287 290
311 307 303 303 301 301 302 303 305 305 304 301 296 285 277 270 266 265 264 263 267 271 275 279 282 284 286 290 294 297 299 300 298 294 285 278 275 274 277 279 283 286 289 291
311 309 305 303 298 297 297 298 299 299 299 297 294 287 278 272 268 265 264 263 264 267 270 271 273 275 277 280 283 287 289 291 292 292 290 287 283 281 282 283 285 287 289 292
306 305 303 301 297 293 293 293 294 294 295 292 290 285 279 274 268 265 264 264 264 265 267 267 266 268 270 273 276 279 281 283 284 285 286 286 286 286 286 288 288 289 290 292
302 302 301 299 295 291 289 289 290 291 290 288 285 281 277 272 268 266 264 264 265 264 264 265 264 264 265 267 269 272 274 275 277 279 280 282 283 285 285 286 287 289 290 292
299 300 299 298 295 291 288 287 286 285 283 282 280 276 272 269 266 266 266 266 267 266 263 263 263 263 263 263 265 266 268 269 270 272 275 277 279 281 282 283 285 287 288 288
297 296 295 293 292 290 287 286 284 280 278 276 274 270 267 264 262 262 265 268 267 267 264 262 261 261 262 263 263 264 264 263 263 265 268 272 275 276 277 278 281 283 283 282
296 295 293 289 286 283 282 281 280 278 274 270 268 265 263 261 259 260 262 264 264 264 263 261 261 261 263 265 266 265 263 260 259 259 262 266 270 271 272 273 275 277 277 278
295 293 294 291 287 283 278 276 274 273 270 268 264 262 260 259 256 255 256 258 260 260 261 261 261 263 265 268 270 269 265 261 257 255 257 261 265 267 268 268 270 272 273 275
289 286 285 283 283 283 280 275 273 271 267 261 259 256 254 253 254 253 253 253 254 256 257 258 258 260 264 269 271 270 268 264 259 257 257 258 259 262 263 263 265 268 270 273
285 281 278 277 277 277 277 274 270 265 258 252 251 251 249 249 249 250 250 250 249 249 250 253 256 258 261 266 270 270 270 270 266 261 258 256 256 257 259 260 262 264 267 271
280 278 277 275 274 272 272 271 269 266 260 255 252 249 246 246 246 246 245 246 246 246 246 250 253 257 260 263 266 267 268 271 272 269 263 257 254 253 255 256 258 261 265 270
283 282 280 278 275 272 269 268 267 266 263 261 257 255 248 243 243 243 241 241 242 243 245 249 252 255 258 260 261 261 263 267 272 273 272 265 256 251 250 252 254 258 262 268
296 293 290 286 283 279 273 269 267 265 263 261 260 257 253 247 244 242 240 240 239 240 244 248 251 254 255 257 257 256 256 259 266 271 273 271 263 254 249 249 251 255 261 267
303 301 299 295 291 287 281 274 270 267 264 261 259 257 255 253 249 244 242 240 239 240 243 247 250 253 254 254 254 252 251 254 259 264 269 272 268 259 252 250 251 256 262 268
311 311 310 307 304 299 292 282 274 268 265 263 260 258 257 256 255 252 248 245 243 243 245 247 249 251 252 253 252 249 248 250 253 257 264 269 268 262 254 251 254 260 265 270
319 320 321 319 317 314 308 297 287 275 267 262 258 256 255 255 255 254 252 249 247 247 247 248 249 249 250 251 249 247 244 244 246 252 258 262 263 261 256 253 256 261 265 271
328 328 327 325 322 318 315 310 300 284 266 253 242 241 245 250 252 251 250 249 248 246 245 246 247 247 248 247 246 243 241 241 243 246 250 255 258 258 254 252 255 260 264 270
Height
5799 5797 5793 5792 5791 5787 5784 5782 5779 5777 5774 5771 5767 5764 5760 5756 5750 5744 5738 5731 5724 5718 5713 5710 5708 5707 5708 5710 5711 5714 5716 5718 5720 5723 5725 5727 5728 5730 5731 5731 5732 5732 5732 5732
5791 5789 5784 5783 5783 5779 5775 5773 5770 5767 5766 5762 5759 5756 5753 5749 5745 5739 5733 5727 5721 5715 5711 5708 5706 5705 5705 5706 5707 5709 5711 5713 5715 5716 5718 5720 5721 5722 5722 5723 5723 5723 5723 5723
5784 5781 5777 5775 5774 5769 5765 5763 5761 5758 5757 5754 5752 5749 5746 5743 5739 5734 5729 5723 5718 5714 5710 5707 5704 5703 5703 5703 5704 5705 5706 5708 5709 5710 5712 5713 5714 5714 5715 5715 5715 5715 5715 5715
5778 5775 5771 5772 5764 5760 5756 5755 5752 5749 5747 5745 5744 5742 5739 5737 5734 5730 5725 5720 5716 5712 5708 5706 5703 5701 5701 5701 5701 5701 5702 5703 5704 5705 5706 5706 5707 5707 5707 5707 5707 5708 5707 5707
5773 5769 5766 5765 5759 5753 5749 5748 5745 5741 5739 5737 5736 5735 5733 5730 5728 5725 5721 5717 5713 5709 5706 5704 5702 5700 5699 5698 5698 5698 5698 5699 5699 5700 5700 5700 5700 5700 5700 5700 5701 5701 5701 5701
5768 5763 5760 5760 5754 5748 5744 5741 5738 5734 5732 5730 5728 5727 5726 5724 5722 5720 5717 5714 5710 5707 5704 5702 5700 5698 5697 5696 5695 5695 5694 5694 5694 5694 5694 5694 5694 5695 5695 5695 5695 5696 5696 5696
5763 5758 5755 5752 5747 5743 5739 5737 5731 5728 5725 5723 5721 5719 5718 5717 5716 5714 5712 5710 5707 5705 5702 5700 5698 5696 5694 5693 5692 5691 5690 5689 5689 5689 5689 5689 5690 5690 5690 5691 5691 5691 5691 5691
5757 5753 5751 5745 5740 5737 5733 5729 5725 5721 5717 5715 5713 5711 5710 5709 5709 5708 5707 5706 5704 5702 5700 5698 5696 5694 5692 5690 5689 5688 5687 5686 5685 5685 5685 5685 5686 5686 5687 5687 5687 5687 5687 5687
5751 5749 5743 5738 5733 5729 5725 5721 5717 5713 5710 5707 5705 5703 5702 5701 5701 5701 5701 5700 5699 5698 5696 5695 5693 5691 5690 5688 5686 5685 5684 5683 5683 5682 5682 5682 5683 5683 5683 5684 5684 5684 5684 5683
5744 5741 5736 5731 5726 5721 5717 5713 5709 5706 5702 5699 5696 5695 5693 5693 5693 5693 5693 5694 5693 5693 5692 5691 5689 5688 5687 5686 5684 5683 5682 5682 5681 5680 5680 5680 5680 5680 5680 5680 5680 5680 5679 5678
5736 5733 5728 5724 5718 5713 5709 5705 5701 5698 5694 5691 5689 5687 5685 5684 5684 5684 5685 5686 5686 5686 5686 5685 5684 5684 5683 5682 5681 5681 5680 5680 5679 5678 5678 5677 5677 5677 5677 5677 5676 5676 5675 5674
5727 5723 5718 5715 5710 5705 5700 5696 5692 5689 5686 5683 5681 5678 5677 5675 5675 5675 5676 5677 5678 5678 5678 5678 5678 5678 5678 5678 5677 5677 5677 5676 5676 5675 5675 5674 5674 5673 5673 5673 5672 5671 5670 5669
5716 5712 5707 5704 5700 5695 5690 5686 5682 5679 5677 5675 5672 5670 5668 5667 5666 5666 5667 5668 5669 5669 5670 5670 5671 5671 5672 5672 5672 5672 5671 5671 5671 5671 5670 5670 5669 5669 5668 5668 5667 5666 5665 5664
5704 5700 5697 5693 5688 5684 5680 5676 5672 5669 5667 5665 5663 5662 5660 5659 5658 5658 5659 5660 5661 5661 5661 5662 5662 5663 5664 5664 5665 5665 5665 5665 5665 5665 5665 5665 5664 5664 5663 5663 5662 5662 5661 5660
5693 5688 5684 5679 5675 5671 5667 5664 5661 5659 5656 5654 5653 5652 5652 5651 5650 5650 5650 5651 5651 5652 5652 5653 5654 5655 5656 5656 5657 5657 5658 5658 5659 5659 5659 5659 5658 5658 5658 5657 5657 5657 5656 5655
5681 5675 5670 5665 5662 5658 5655 5652 5649 5647 5645 5643 5643 5642 5642 5642 5642 5641 5641 5641 5642 5642 5643 5643 5644 5646 5647 5647 5648 5649 5650 5650 5651 5652 5652 5652 5652 5652 5652 5651 5651 5651 5651 5650
5666 5661 5656 5651 5647 5644 5641 5638 5636 5633 5632 5631 5631 5631 5631 5632 5632 5632 5632 5632 5633 5634 5634 5635 5635 5637 5638 5639 5639 5640 5641 5642 5643 5644 5645 5645 5645 5645 5645 5645 5645 5645 5645 5645
5647 5643 5638 5634 5631 5628 5626 5624 5621 5620 5618 5617 5617 5618 5619 5620 5621 5622 5622 5623 5624 5625 5626 5626 5627 5628 5630 5630 5631 5631 5632 5633 5634 5635 5637 5638 5638 5639 5639 5639 5639 5639 5639 5639
5631 5626 5621 5617 5614 5610 5608 5606 5606 5604 5603 5602 5603 5604 5605 5607 5609 5611 5612 5612 5614 5616 5618 5618 5619 5620 5622 5623 5623 5624 5624 5625 5626 5627 5628 5629 5630 5631 5632 5632 5632 5632 5632 5632
5612 5606 5601 5598 5595 5592 5590 5589 5589 5589 5587 5586 5587 5589 5591 5594 5596 5598 5600 5602 5605 5607 5608 5608 5609 5612 5613 5615 5616 5616 5617 5617 5618 5618 5619 5621 5622 5623 5624 5625 5626 5626 5626 5626
5590 5584 5578 5574 5571 5569 5568 5567 5567 5569 5569 5569 5571 5574 5576 5579 5582 5585 5588 5591 5594 5596 5597 5598 5600 5603 5605 5606 5608 5609 5610 5610 5611 5611 5612 5613 5614 5616 5617 5618 5619 5619 5620 5620
5565 5558 5552 5547 5543 5542 5542 5541 5542 5543 5547 5549 5551 5555 5560 5563 5567 5571 5575 5580 5582 5584 5586 5588 5591 5594 5595 5597 5598 5601 5602 5603 5604 5604 5604 5605 5606 5608 5609 5611 5612 5613 5613 5614
5540 5533 5527 5521 5516 5514 5513 5514 5514 5516 5520 5526 5530 5536 5541 5545 5550 5556 5562 5566 5569 5572 5575 5578 5581 5583 5585 5586 5589 5591 5594 5595 5597 5597 5598 5598 5599 5600 5602 5604 5605 5606 5607 5607
5519 5511 5505 5499 5494 5490 5488 5488 5488 5490 5495 5501 5508 5515 5521 5528 5534 5540 5545 5550 5555 5559 5563 5567 5569 5572 5574 5576 5579 5582 5585 5587 5589 5590 5591 5591 5592 5593 5595 5596 5598 5599 5600 5601
5503 5496 5490 5484 5479 5474 5471 5469 5470 5471 5474 5480 5488 5495 5503 5510 5518 5524 5529 5535 5541 5545 5550 5554 5557 5560 5562 5565 5568 5572 5575 5578 5581 5583 5584 5585 5585 5586 5588 5589 5591 5592 5593 5594
5493 5487 5481 5476 5470 5465 5461 5459 5457 5458 5460 5464 5471 5478 5487 5495 5503 5510 5516 5521 5527 5531 5536 5540 5544 5547 5550 5554 5557 5561 5565 5569 5572 5574 5577 5578 5579 5580 5581 5582 5584 5585 5586 5587
5488 5482 5476 5470 5465 5460 5455 5452 5450 5449 5450 5453 5459 5466 5474 5482 5490 5497 5503 5509 5514 5519 5523 5527 5531 5535 5539 5542 5546 5550 5554 5559 5562 5566 5569 5571 5572 5573 5574 5575 5577 5579 5580 5580